#�ϑ�����,���ϕ���,���ϕ���,�ő啗��,�ő啗����������,�ő�u�ԕ���,�ő�u�ԕ�����������
#(�N����),(m/s)   ,(16����),(m/s)   ,(16����)        ,(m/s)       ,(16����)            
2018/12/28 0:01,4.1,11,4.1,11,4.7,11
2018/12/28 0:02,4.2,11,4.2,11,4.9,11
2018/12/28 0:03,4,11,4.1,11,7.4,9
2018/12/28 0:04,3.9,11,4,11,6.9,9
2018/12/28 0:05,3.9,11,4,11,8.9,11
2018/12/28 0:06,3.9,11,3.9,11,9,10
2018/12/28 0:07,4.1,11,4.1,11,8.2,9
2018/12/28 0:08,3.8,11,4.1,11,7.2,12
2018/12/28 0:09,3.7,11,3.8,11,8.3,8
2018/12/28 0:10,3.6,11,3.7,11,5.8,8
2018/12/28 0:11,3.7,11,3.7,11,6.9,10
2018/12/28 0:12,3.7,10,3.8,11,7.1,11
2018/12/28 0:13,4,11,4.1,11,9.7,11
2018/12/28 0:14,3.9,11,4,11,4.3,13
2018/12/28 0:15,3.9,11,4,11,7.5,9
2018/12/28 0:16,4.2,10,4.2,10,10.3,11
2018/12/28 0:17,4.1,10,4.2,10,8.2,10
2018/12/28 0:18,4,10,4.1,10,4.9,9
2018/12/28 0:19,3.8,10,4,10,5.1,9
2018/12/28 0:20,3.9,10,4,10,6.8,10
2018/12/28 0:21,3.9,10,4,10,5.2,10
2018/12/28 0:22,3.9,10,3.9,10,5.5,9
2018/12/28 0:23,3.7,10,3.9,10,5.8,9
2018/12/28 0:24,3.8,10,3.8,10,6,10
2018/12/28 0:25,3.7,10,3.8,10,6.1,10
2018/12/28 0:26,3.2,10,3.7,10,4.3,9
2018/12/28 0:27,2.8,10,3.2,10,2.7,12
2018/12/28 0:28,2.7,10,2.8,10,2.7,12
2018/12/28 0:29,2.5,10,2.6,10,1.3,6
2018/12/28 0:30,2.2,10,2.5,10,1.1,14
2018/12/28 0:31,1.9,10,2.2,10,0.9,12
2018/12/28 0:32,1.6,11,1.9,10,1,1
2018/12/28 0:33,1.4,11,1.6,10,1.3,15
2018/12/28 0:34,1,12,1.3,10,1.1,9
2018/12/28 0:35,0.9,13,1,10,2,15
2018/12/28 0:36,0.8,13,0.9,10,1.3,1
2018/12/28 0:37,0.6,14,0.8,10,0.6,12
2018/12/28 0:38,0.5,16,0.6,10,0.8,1
2018/12/28 0:39,0.5,15,0.5,10,0.9,12
2018/12/28 0:40,0.5,15,0.5,10,2.5,11
2018/12/28 0:41,0.7,15,0.7,11,3.1,11
2018/12/28 0:42,0.9,11,0.9,11,3.3,8
2018/12/28 0:43,1,10,1,11,3.3,10
2018/12/28 0:44,1,10,1,12,1.1,13
2018/12/28 0:45,1,9,1,10,2.7,9
2018/12/28 0:46,1.1,10,1.1,10,3.7,12
2018/12/28 0:47,1.4,10,1.4,10,5.1,10
2018/12/28 0:48,1.5,10,1.5,10,4.1,11
2018/12/28 0:49,1.7,10,1.7,10,3.3,11
2018/12/28 0:50,1.7,10,1.7,10,2.9,11
2018/12/28 0:51,1.7,10,1.7,10,3,11
2018/12/28 0:52,1.6,11,1.6,10,4.5,15
2018/12/28 0:53,1.5,11,1.6,10,3.2,15
2018/12/28 0:54,1.5,11,1.6,10,0.8,8
2018/12/28 0:55,1.5,11,1.5,10,1.9,12
2018/12/28 0:56,1.5,11,1.5,10,3.7,9
2018/12/28 0:57,1.3,11,1.5,10,2.7,11
2018/12/28 0:58,1.2,11,1.3,10,1.4,6
2018/12/28 0:59,1.2,11,1.2,10,2,9
2018/12/28 1:00,1.2,11,1.2,10,2.2,11
2018/12/28 1:01,1.2,11,1.2,10,3.3,10
2018/12/28 1:02,1.1,11,1.2,11,3.2,10
2018/12/28 1:03,1.1,11,1.1,11,2.9,9
2018/12/28 1:04,1.2,10,1.2,11,3.2,10
2018/12/28 1:05,1.3,10,1.3,11,3.5,8
2018/12/28 1:06,1.4,10,1.4,11,4.3,11
2018/12/28 1:07,1.5,10,1.5,10,4.2,10
2018/12/28 1:08,1.7,10,1.7,10,5.6,9
2018/12/28 1:09,1.9,10,1.9,10,5.5,10
2018/12/28 1:10,2.1,10,2.1,10,4.7,11
2018/12/28 1:11,2.1,10,2.1,10,3.1,11
2018/12/28 1:12,2.1,10,2.1,10,2.9,9
2018/12/28 1:13,2,10,2.1,10,1.4,11
2018/12/28 1:14,2.1,10,2.1,10,5.1,10
2018/12/28 1:15,2.1,11,2.1,10,4.3,10
2018/12/28 1:16,2,11,2.1,10,3.3,10
2018/12/28 1:17,2.1,11,2.1,10,3.2,10
2018/12/28 1:18,2,11,2.1,10,4.8,10
2018/12/28 1:19,2,11,2,10,6.3,10
2018/12/28 1:20,1.9,11,2,10,4.1,9
2018/12/28 1:21,1.9,11,2,10,3.8,11
2018/12/28 1:22,1.9,11,1.9,10,1.9,13
2018/12/28 1:23,2,10,2,10,3.5,9
2018/12/28 1:24,2,10,2.1,10,4.8,9
2018/12/28 1:25,1.9,10,1.9,11,2.2,8
2018/12/28 1:26,1.8,10,1.9,11,2.1,11
2018/12/28 1:27,1.8,10,1.8,11,3.3,9
2018/12/28 1:28,1.7,10,1.8,10,3.6,9
2018/12/28 1:29,1.5,10,1.7,10,2.6,9
2018/12/28 1:30,1.4,10,1.5,10,3,10
2018/12/28 1:31,1.4,10,1.4,10,2.7,9
2018/12/28 1:32,1.4,10,1.4,10,2.2,8
2018/12/28 1:33,1.4,10,1.4,10,1.8,9
2018/12/28 1:34,1.4,10,1.4,10,3.1,10
2018/12/28 1:35,1.4,10,1.4,10,3.6,8
2018/12/28 1:36,1.5,10,1.5,10,2.4,10
2018/12/28 1:37,1.4,10,1.5,10,1.6,16
2018/12/28 1:38,1.2,10,1.4,10,1,7
2018/12/28 1:39,1.3,10,1.3,10,4.2,11
2018/12/28 1:40,1.4,10,1.4,10,3.8,10
2018/12/28 1:41,1.4,10,1.5,10,3.8,9
2018/12/28 1:42,1.4,11,1.4,10,2,9
2018/12/28 1:43,1.4,11,1.4,10,3.7,11
2018/12/28 1:44,1.6,11,1.6,11,4.8,11
2018/12/28 1:45,1.7,11,1.7,11,4.9,10
2018/12/28 1:46,1.8,11,1.8,11,3,11
2018/12/28 1:47,1.8,11,1.8,11,1.8,12
2018/12/28 1:48,1.8,11,1.8,11,1,1
2018/12/28 1:49,1.7,11,1.8,11,1.6,9
2018/12/28 1:50,1.6,11,1.6,11,3.3,10
2018/12/28 1:51,1.6,12,1.6,11,4.1,10
2018/12/28 1:52,1.7,11,1.7,11,2.1,10
2018/12/28 1:53,1.6,11,1.7,11,1.5,9
2018/12/28 1:54,1.3,11,1.6,11,1.5,9
2018/12/28 1:55,1,12,1.3,11,1,13
2018/12/28 1:56,0.9,11,1,11,1.8,9
2018/12/28 1:57,1,11,1,11,2.7,10
2018/12/28 1:58,1.2,11,1.2,11,4.3,12
2018/12/28 1:59,1.4,11,1.4,11,4.4,10
2018/12/28 2:00,1.4,11,1.5,11,3.2,11
2018/12/28 2:01,1.4,11,1.4,11,3.8,10
2018/12/28 2:02,1.5,11,1.5,11,3.6,10
2018/12/28 2:03,1.6,11,1.6,11,4.5,8
2018/12/28 2:04,1.8,11,1.8,11,4.2,11
2018/12/28 2:05,2.1,11,2.1,11,5.4,10
2018/12/28 2:06,2.2,11,2.2,11,4.8,11
2018/12/28 2:07,2.3,11,2.3,11,3.1,10
2018/12/28 2:08,2.2,11,2.3,11,3,10
2018/12/28 2:09,2.2,11,2.2,11,4.5,11
2018/12/28 2:10,2.2,11,2.2,11,3,10
2018/12/28 2:11,2.2,11,2.2,11,3.2,12
2018/12/28 2:12,2.2,11,2.3,11,2.9,13
2018/12/28 2:13,2.2,11,2.3,11,3.5,11
2018/12/28 2:14,2.2,11,2.2,11,4.2,10
2018/12/28 2:15,2.2,11,2.3,11,5.2,9
2018/12/28 2:16,2.2,11,2.2,11,4.8,10
2018/12/28 2:17,2.3,11,2.3,11,5,9
2018/12/28 2:18,2.3,11,2.3,11,3,10
2018/12/28 2:19,2.2,11,2.3,11,3.2,11
2018/12/28 2:20,2.3,11,2.3,11,5.2,11
2018/12/28 2:21,2.4,10,2.4,11,5.4,10
2018/12/28 2:22,2.5,10,2.5,10,4.2,10
2018/12/28 2:23,2.5,11,2.5,10,3.8,9
2018/12/28 2:24,2.4,10,2.5,10,3.1,10
2018/12/28 2:25,2.4,11,2.4,10,4.3,11
2018/12/28 2:26,2.3,10,2.4,10,4.4,10
2018/12/28 2:27,2.2,11,2.3,10,2.6,12
2018/12/28 2:28,2.2,11,2.2,10,3.7,9
2018/12/28 2:29,2.4,11,2.4,10,4.7,11
2018/12/28 2:30,2.3,11,2.4,10,4.4,10
2018/12/28 2:31,2.2,11,2.3,10,2.9,11
2018/12/28 2:32,2.1,11,2.2,10,2.4,11
2018/12/28 2:33,2,11,2.1,11,2.2,11
2018/12/28 2:34,2,11,2,10,3.1,11
2018/12/28 2:35,2,11,2,11,4.1,10
2018/12/28 2:36,2.2,11,2.2,11,5.2,10
2018/12/28 2:37,2.4,10,2.4,11,4.7,10
2018/12/28 2:38,2.4,10,2.4,11,4.1,9
2018/12/28 2:39,2.4,10,2.4,11,4.9,10
2018/12/28 2:40,2.2,10,2.3,10,2.2,10
2018/12/28 2:41,2.2,10,2.2,10,2.7,9
2018/12/28 2:42,2.2,10,2.2,10,2.1,10
2018/12/28 2:43,2.1,10,2.2,10,1.5,12
2018/12/28 2:44,2,10,2.1,10,1.8,8
2018/12/28 2:45,2,10,2,10,4.3,11
2018/12/28 2:46,1.8,10,2,10,2.6,10
2018/12/28 2:47,1.6,10,1.8,10,3.2,9
2018/12/28 2:48,1.5,11,1.6,10,2.2,11
2018/12/28 2:49,1.4,11,1.4,10,4.2,10
2018/12/28 2:50,1.4,11,1.4,10,3,10
2018/12/28 2:51,1.4,11,1.4,10,2.7,13
2018/12/28 2:52,1.4,11,1.4,10,3,10
2018/12/28 2:53,1.4,11,1.4,10,3.3,12
2018/12/28 2:54,1.6,11,1.6,10,3.5,11
2018/12/28 2:55,1.5,11,1.6,10,2.9,10
2018/12/28 2:56,1.6,11,1.6,10,3.3,9
2018/12/28 2:57,1.6,11,1.6,10,3.3,11
2018/12/28 2:58,1.8,11,1.8,11,4.9,11
2018/12/28 2:59,1.8,11,1.9,11,3.2,9
2018/12/28 3:00,1.8,11,1.8,11,3.2,12
2018/12/28 3:01,1.8,11,1.9,11,2.9,14
2018/12/28 3:02,1.8,12,1.8,11,0.4,14
2018/12/28 3:03,1.7,12,1.7,11,1.3,1
2018/12/28 3:04,1.5,12,1.7,11,0.8,16
2018/12/28 3:05,1.4,12,1.5,11,1.8,8
2018/12/28 3:06,1.2,13,1.3,11,0.8,7
2018/12/28 3:07,1,14,1.1,11,1.8,11
2018/12/28 3:08,0.8,15,1,11,1.4,12
2018/12/28 3:09,0.6,15,0.8,11,0.4,2
2018/12/28 3:10,0.5,16,0.6,11,1,14
2018/12/28 3:11,0.4,16,0.5,11,1.1,2
2018/12/28 3:12,0.5,16,0.5,12,2.1,1
2018/12/28 3:13,0.6,16,0.6,12,2,16
2018/12/28 3:14,0.6,15,0.6,12,1.5,1
2018/12/28 3:15,0.6,15,0.6,12,2.5,11
2018/12/28 3:16,0.8,15,0.8,13,2,12
2018/12/28 3:17,0.8,15,0.8,14,2.5,16
2018/12/28 3:18,0.8,15,0.8,15,0.6,14
2018/12/28 3:19,0.9,15,0.9,15,1.9,12
2018/12/28 3:20,0.9,14,0.9,15,1.5,12
2018/12/28 3:21,1,14,1,14,1.1,7
2018/12/28 3:22,0.9,13,1,14,0.9,10
2018/12/28 3:23,0.8,13,0.9,14,1.1,11
2018/12/28 3:24,0.8,13,0.9,14,1.3,14
2018/12/28 3:25,0.8,13,0.8,14,1.8,2
2018/12/28 3:26,0.8,14,0.8,14,1.9,1
2018/12/28 3:27,0.7,14,0.8,14,1.3,2
2018/12/28 3:28,0.7,15,0.7,14,0.4,3
2018/12/28 3:29,0.6,15,0.7,14,0.8,15
2018/12/28 3:30,0.7,15,0.7,14,1.3,10
2018/12/28 3:31,0.6,15,0.7,14,1.3,9
2018/12/28 3:32,0.7,15,0.7,13,3.9,11
2018/12/28 3:33,0.8,15,0.8,13,3.2,12
2018/12/28 3:34,0.8,14,0.8,13,1.5,9
2018/12/28 3:35,0.8,11,0.8,13,2.5,6
2018/12/28 3:36,0.9,9,0.9,9,2.6,6
2018/12/28 3:37,0.9,8,0.9,9,2.4,7
2018/12/28 3:38,1.1,9,1.1,9,2.1,7
2018/12/28 3:39,1.1,8,1.1,9,2,9
2018/12/28 3:40,1.2,8,1.2,8,2.9,9
2018/12/28 3:41,1.2,8,1.2,8,0.8,10
2018/12/28 3:42,1.1,8,1.2,8,1.8,9
2018/12/28 3:43,1.1,8,1.1,8,2,11
2018/12/28 3:44,1.2,8,1.2,8,2.1,9
2018/12/28 3:45,1.2,8,1.2,8,3.3,9
2018/12/28 3:46,1.3,9,1.3,8,3.7,9
2018/12/28 3:47,1.2,9,1.3,8,2.1,9
2018/12/28 3:48,1.2,9,1.2,8,2.4,10
2018/12/28 3:49,1.2,9,1.2,8,2.5,10
2018/12/28 3:50,1.1,10,1.2,8,1.8,12
2018/12/28 3:51,1.2,10,1.2,8,1.3,13
2018/12/28 3:52,1.2,10,1.2,8,1.3,8
2018/12/28 3:53,1.1,10,1.2,8,1,8
2018/12/28 3:54,1.1,10,1.1,8,1.9,7
2018/12/28 3:55,1.1,10,1.1,8,2,10
2018/12/28 3:56,0.9,10,1.1,9,1.1,4
2018/12/28 3:57,0.9,9,0.9,9,0.1,4
2018/12/28 3:58,0.7,10,0.8,9,0.5,16
2018/12/28 3:59,0.6,9,0.7,9,0.3,14
2018/12/28 4:00,0.5,9,0.6,10,0.5,11
2018/12/28 4:01,0.4,8,0.5,10,0.1,9
2018/12/28 4:02,0.5,8,0.5,10,1.3,11
2018/12/28 4:03,0.4,7,0.5,10,1.1,10
2018/12/28 4:04,0.4,6,0.4,10,1.3,4
2018/12/28 4:05,0.4,4,0.4,10,2.1,3
2018/12/28 4:06,0.5,3,0.5,10,2.2,3
2018/12/28 4:07,0.6,4,0.6,9,1.3,4
2018/12/28 4:08,0.6,5,0.6,10,1.6,6
2018/12/28 4:09,0.8,5,0.8,5,2.6,6
2018/12/28 4:10,1,5,1,5,2.5,8
2018/12/28 4:11,1.2,5,1.2,5,2.9,8
2018/12/28 4:12,1.3,5,1.3,5,3.2,8
2018/12/28 4:13,1.5,6,1.5,6,3.3,10
2018/12/28 4:14,1.6,7,1.6,6,3.3,8
2018/12/28 4:15,1.6,7,1.6,6,2.4,11
2018/12/28 4:16,1.5,8,1.6,6,1.6,11
2018/12/28 4:17,1.6,9,1.6,6,3.5,9
2018/12/28 4:18,1.7,9,1.7,9,3.8,9
2018/12/28 4:19,1.6,9,1.6,9,5.2,11
2018/12/28 4:20,1.8,9,1.8,9,7.4,8
2018/12/28 4:21,2.1,10,2.1,10,9.3,8
2018/12/28 4:22,2.2,10,2.2,10,6.1,7
2018/12/28 4:23,2.1,10,2.1,10,2.9,15
2018/12/28 4:24,2.1,10,2.1,10,2.5,16
2018/12/28 4:25,2.1,11,2.1,10,3,15
2018/12/28 4:26,2.3,12,2.3,11,3.1,15
2018/12/28 4:27,2.2,12,2.3,11,2.4,16
2018/12/28 4:28,2.1,13,2.2,11,1.4,2
2018/12/28 4:29,2,14,2.1,11,1.5,6
2018/12/28 4:30,1.7,14,2,11,1.6,9
2018/12/28 4:31,1.4,15,1.7,11,4.2,8
2018/12/28 4:32,1.6,14,1.6,11,4.7,8
2018/12/28 4:33,1.7,13,1.7,11,3.9,9
2018/12/28 4:34,1.7,11,1.7,11,3.2,9
2018/12/28 4:35,1.7,9,1.7,11,2.6,9
2018/12/28 4:36,1.6,9,1.6,11,2.9,9
2018/12/28 4:37,1.7,9,1.7,12,3.7,9
2018/12/28 4:38,1.9,9,1.9,13,4.8,9
2018/12/28 4:39,2.1,9,2.1,9,4.7,13
2018/12/28 4:40,2.4,10,2.4,10,6.4,14
2018/12/28 4:41,2.5,10,2.5,10,6.1,14
2018/12/28 4:42,2.7,11,2.7,11,8.5,16
2018/12/28 4:43,2.8,12,2.8,12,7.5,16
2018/12/28 4:44,3,13,3,13,6.9,16
2018/12/28 4:45,3,13,3,13,4.3,1
2018/12/28 4:46,3,14,3.1,14,5.5,2
2018/12/28 4:47,3.1,15,3.1,14,4.7,16
2018/12/28 4:48,3.1,15,3.1,14,4.9,16
2018/12/28 4:49,3,15,3.1,14,3.6,16
2018/12/28 4:50,2.8,16,3,14,2.2,6
2018/12/28 4:51,2.6,16,2.8,14,2.5,5
2018/12/28 4:52,2.2,16,2.6,14,2.6,8
2018/12/28 4:53,2,16,2.2,14,2.4,8
2018/12/28 4:54,1.8,1,1.9,14,3,9
2018/12/28 4:55,1.7,1,1.8,14,3.6,9
2018/12/28 4:56,1.5,10,1.7,14,1.3,10
2018/12/28 4:57,1.4,9,1.5,15,2.6,9
2018/12/28 4:58,1.4,9,1.4,15,2.5,10
2018/12/28 4:59,1.3,9,1.3,15,4.2,10
2018/12/28 5:00,1.4,9,1.4,16,3.9,10
2018/12/28 5:01,1.4,9,1.4,16,2.7,9
2018/12/28 5:02,1.4,9,1.4,16,2.9,10
2018/12/28 5:03,1.4,9,1.4,16,2.6,9
2018/12/28 5:04,1.4,10,1.4,1,3.2,11
2018/12/28 5:05,1.5,10,1.5,1,4.5,10
2018/12/28 5:06,1.6,10,1.6,10,4.1,10
2018/12/28 5:07,1.5,10,1.6,10,1,13
2018/12/28 5:08,1.5,10,1.5,10,3.6,15
2018/12/28 5:09,1.6,11,1.6,10,4.2,16
2018/12/28 5:10,1.5,12,1.6,10,2.5,1
2018/12/28 5:11,1.6,13,1.6,10,2.9,16
2018/12/28 5:12,1.7,14,1.7,14,4.9,16
2018/12/28 5:13,2,14,2,14,6.4,16
2018/12/28 5:14,2.3,15,2.3,15,8.5,15
2018/12/28 5:15,2.5,15,2.5,15,5.8,15
2018/12/28 5:16,2.4,15,2.5,15,1.9,16
2018/12/28 5:17,2.4,15,2.4,15,1.5,10
2018/12/28 5:18,2.5,15,2.5,15,3.8,10
2018/12/28 5:19,2.6,14,2.6,14,5.6,13
2018/12/28 5:20,2.8,14,2.8,14,4.2,10
2018/12/28 5:21,2.8,13,2.8,14,3.8,11
2018/12/28 5:22,2.8,13,2.8,14,4.2,12
2018/12/28 5:23,2.5,12,2.8,14,2.4,11
2018/12/28 5:24,2,12,2.4,14,0.6,10
2018/12/28 5:25,1.8,12,1.9,14,1.8,11
2018/12/28 5:26,1.8,11,1.8,14,2.9,9
2018/12/28 5:27,2,11,2,14,4.7,10
2018/12/28 5:28,2,11,2,14,3.2,10
2018/12/28 5:29,1.8,11,2,14,3.1,13
2018/12/28 5:30,1.6,11,1.8,14,3.6,8
2018/12/28 5:31,1.6,11,1.6,13,4.3,10
2018/12/28 5:32,1.6,11,1.6,13,4.8,11
2018/12/28 5:33,1.8,11,1.8,12,5.1,10
2018/12/28 5:34,2,11,2,11,5,10
2018/12/28 5:35,2.2,11,2.2,11,4.4,11
2018/12/28 5:36,2.3,11,2.3,11,2.5,13
2018/12/28 5:37,2.3,11,2.3,11,2.6,14
2018/12/28 5:38,2.2,11,2.3,11,2,13
2018/12/28 5:39,2,12,2.1,11,1.1,13
2018/12/28 5:40,2,12,2,11,1,12
2018/12/28 5:41,1.9,12,2,11,1.8,12
2018/12/28 5:42,1.7,12,1.9,11,1.8,12
2018/12/28 5:43,1.5,12,1.7,11,0.6,12
2018/12/28 5:44,1.2,12,1.5,11,0.8,12
2018/12/28 5:45,1,12,1.2,11,1.3,13
2018/12/28 5:46,1,12,1,11,2.9,15
2018/12/28 5:47,0.9,13,1,11,2.5,16
2018/12/28 5:48,0.8,13,0.9,11,1.5,12
2018/12/28 5:49,0.8,13,0.8,11,2.5,15
2018/12/28 5:50,0.9,13,0.9,12,2.7,15
2018/12/28 5:51,0.9,14,0.9,12,2.1,1
2018/12/28 5:52,0.9,14,0.9,12,2.2,1
2018/12/28 5:53,0.9,14,0.9,12,0.6,16
2018/12/28 5:54,0.9,14,0.9,12,1.3,11
2018/12/28 5:55,1,14,1,12,2.1,13
2018/12/28 5:56,1,14,1,12,2.9,10
2018/12/28 5:57,1.1,13,1.1,13,2.9,11
2018/12/28 5:58,1.2,13,1.2,13,2.2,11
2018/12/28 5:59,1.2,12,1.2,13,1.9,12
2018/12/28 6:00,1.1,12,1.2,13,0.6,9
2018/12/28 6:01,1,12,1.1,13,0.6,10
2018/12/28 6:02,1,11,1,13,1.4,10
2018/12/28 6:03,1,11,1,13,0.5,13
2018/12/28 6:04,1,11,1,13,1.9,9
2018/12/28 6:05,0.9,11,1,13,1,9
2018/12/28 6:06,0.8,11,0.9,13,1.3,9
2018/12/28 6:07,0.7,11,0.8,13,3,9
2018/12/28 6:08,0.7,11,0.7,13,3,9
2018/12/28 6:09,0.7,11,0.7,12,2.5,8
2018/12/28 6:10,0.9,11,0.9,12,3.7,12
2018/12/28 6:11,1.1,11,1.1,11,3,10
2018/12/28 6:12,1.2,11,1.2,11,3,10
2018/12/28 6:13,1.3,11,1.3,11,2,14
2018/12/28 6:14,1.2,11,1.3,11,1.6,13
2018/12/28 6:15,1.3,11,1.3,11,2.5,11
2018/12/28 6:16,1.4,12,1.4,11,2.4,12
2018/12/28 6:17,1.5,12,1.5,12,2.4,12
2018/12/28 6:18,1.4,12,1.5,12,1.5,12
2018/12/28 6:19,1.5,12,1.5,12,2.4,13
2018/12/28 6:20,1.4,12,1.5,12,2,14
2018/12/28 6:21,1.3,12,1.4,12,1.8,14
2018/12/28 6:22,1.2,12,1.3,12,1.8,10
2018/12/28 6:23,1.3,12,1.3,12,1.9,11
2018/12/28 6:24,1.3,12,1.3,12,1.8,13
2018/12/28 6:25,1.3,12,1.3,12,1.5,12
2018/12/28 6:26,1.2,12,1.3,12,1.4,15
2018/12/28 6:27,1.1,12,1.2,12,1.6,13
2018/12/28 6:28,1.2,13,1.2,12,2.4,13
2018/12/28 6:29,1.2,13,1.2,12,2.5,13
2018/12/28 6:30,1.2,13,1.2,12,2,13
2018/12/28 6:31,1.2,13,1.2,12,1.9,13
2018/12/28 6:32,1.2,13,1.2,12,1.9,12
2018/12/28 6:33,1.1,13,1.2,12,0.5,14
2018/12/28 6:34,1,13,1,12,1.5,12
2018/12/28 6:35,1,12,1,12,1.6,9
2018/12/28 6:36,1,12,1,12,0.8,8
2018/12/28 6:37,1,12,1,13,3,10
2018/12/28 6:38,1,11,1,13,3,10
2018/12/28 6:39,0.9,11,1,13,1.6,13
2018/12/28 6:40,0.9,11,0.9,13,2.1,14
2018/12/28 6:41,0.9,11,0.9,13,2,15
2018/12/28 6:42,1,11,1,13,2.1,15
2018/12/28 6:43,1.1,11,1.1,11,1.6,12
2018/12/28 6:44,1.1,11,1.1,11,2.6,9
2018/12/28 6:45,1.1,11,1.1,11,2.2,9
2018/12/28 6:46,1.3,11,1.3,11,2.4,10
2018/12/28 6:47,1.2,11,1.3,11,2.1,9
2018/12/28 6:48,1.1,12,1.2,11,0.9,11
2018/12/28 6:49,1.1,12,1.2,11,1.3,13
2018/12/28 6:50,1.1,12,1.1,11,0.9,13
2018/12/28 6:51,1,12,1.1,11,0.5,12
2018/12/28 6:52,0.9,11,0.9,11,1.1,10
2018/12/28 6:53,0.9,11,0.9,11,1.6,12
2018/12/28 6:54,0.9,12,0.9,11,1.6,14
2018/12/28 6:55,0.8,12,0.9,11,1.3,15
2018/12/28 6:56,0.7,12,0.8,11,2.9,8
2018/12/28 6:57,0.7,12,0.8,12,2.2,10
2018/12/28 6:58,0.8,12,0.8,12,2.1,15
2018/12/28 6:59,0.8,12,0.8,12,1.1,11
2018/12/28 7:00,0.8,12,0.8,12,1,16
2018/12/28 7:01,0.8,11,0.8,12,1.3,4
2018/12/28 7:02,0.9,11,0.9,11,3.3,12
2018/12/28 7:03,1,11,1,11,3.7,10
2018/12/28 7:04,1,11,1,11,2,14
2018/12/28 7:05,1,10,1,11,1.9,10
2018/12/28 7:06,1,11,1,11,2.1,12
2018/12/28 7:07,1,11,1,11,2.1,11
2018/12/28 7:08,1.1,12,1.1,12,4.4,14
2018/12/28 7:09,1.1,12,1.1,12,3.3,15
2018/12/28 7:10,1.4,12,1.4,12,8.9,12
2018/12/28 7:11,1.6,12,1.6,12,5.1,12
2018/12/28 7:12,1.5,12,1.7,12,3.6,12
2018/12/28 7:13,1.7,12,1.7,12,6.5,10
2018/12/28 7:14,1.9,12,1.9,12,4.4,11
2018/12/28 7:15,2.1,12,2.1,12,7,11
2018/12/28 7:16,2.3,12,2.3,12,6.3,10
2018/12/28 7:17,2.4,12,2.4,12,4.5,13
2018/12/28 7:18,2.5,12,2.5,12,5.8,12
2018/12/28 7:19,2.6,12,2.6,12,3.7,12
2018/12/28 7:20,2.7,12,2.7,12,5.6,14
2018/12/28 7:21,2.5,12,2.7,12,5,15
2018/12/28 7:22,2.7,13,2.7,12,7.6,11
2018/12/28 7:23,2.7,13,2.8,13,6.2,11
2018/12/28 7:24,2.7,13,2.7,13,5,11
2018/12/28 7:25,2.6,13,2.7,13,3.8,14
2018/12/28 7:26,2.4,13,2.5,13,2.5,9
2018/12/28 7:27,2.2,13,2.4,13,1.6,10
2018/12/28 7:28,2,13,2.2,13,3.7,10
2018/12/28 7:29,2,12,2,13,3.5,11
2018/12/28 7:30,1.9,12,2,13,5.7,8
2018/12/28 7:31,1.9,12,1.9,13,4.5,15
2018/12/28 7:32,1.9,12,2,13,2.7,12
2018/12/28 7:33,1.7,12,1.8,13,3.5,14
2018/12/28 7:34,1.6,12,1.7,13,3.8,16
2018/12/28 7:35,1.7,13,1.7,13,4.2,15
2018/12/28 7:36,1.7,13,1.7,13,2.4,16
2018/12/28 7:37,1.7,13,1.7,13,3.5,10
2018/12/28 7:38,1.8,13,1.8,13,4.1,8
2018/12/28 7:39,1.9,13,2,12,6,11
2018/12/28 7:40,1.9,13,1.9,12,3.9,9
2018/12/28 7:41,2,12,2.1,13,5.5,10
2018/12/28 7:42,1.9,13,2,13,2.9,14
2018/12/28 7:43,1.9,12,1.9,13,2.5,13
2018/12/28 7:44,1.9,12,2,13,3.3,13
2018/12/28 7:45,1.8,12,1.9,13,2.9,14
2018/12/28 7:46,1.8,12,1.9,13,2.5,13
2018/12/28 7:47,1.8,12,1.8,13,1.4,6
2018/12/28 7:48,1.7,13,1.8,13,1.6,15
2018/12/28 7:49,1.6,13,1.7,13,2.6,12
2018/12/28 7:50,1.5,13,1.6,13,2.4,12
2018/12/28 7:51,1.3,13,1.5,12,2.2,13
2018/12/28 7:52,1.3,13,1.3,12,3.2,8
2018/12/28 7:53,1.3,13,1.3,12,4.3,10
2018/12/28 7:54,1.3,12,1.4,12,6.2,10
2018/12/28 7:55,1.3,12,1.4,12,4.2,12
2018/12/28 7:56,1.3,12,1.3,12,1,8
2018/12/28 7:57,1.3,11,1.3,12,2.1,10
2018/12/28 7:58,1.4,11,1.4,13,2.5,10
2018/12/28 7:59,1.4,11,1.4,13,2.1,12
2018/12/28 8:00,1.4,11,1.4,13,2.5,10
2018/12/28 8:01,1.4,10,1.4,13,1.1,9
2018/12/28 8:02,1.5,11,1.5,10,3.8,9
2018/12/28 8:03,1.6,11,1.6,11,3.9,11
2018/12/28 8:04,1.6,11,1.6,11,3,11
2018/12/28 8:05,1.5,11,1.5,11,2.2,12
2018/12/28 8:06,1.7,11,1.7,11,3.3,13
2018/12/28 8:07,1.7,11,1.7,11,1.8,16
2018/12/28 8:08,1.6,11,1.7,11,2.5,8
2018/12/28 8:09,1.6,11,1.6,11,1.8,7
2018/12/28 8:10,1.5,10,1.6,11,0.5,2
2018/12/28 8:11,1.5,11,1.5,11,2.5,10
2018/12/28 8:12,1.4,11,1.5,11,1.6,8
2018/12/28 8:13,1.1,11,1.3,11,0.9,11
2018/12/28 8:14,1,11,1.1,11,0.8,2
2018/12/28 8:15,1,11,1,11,3,16
2018/12/28 8:16,0.8,11,0.9,11,2.5,14
2018/12/28 8:17,0.8,11,0.8,11,2.2,12
2018/12/28 8:18,0.9,12,0.9,11,4.9,10
2018/12/28 8:19,0.9,12,0.9,11,3.9,14
2018/12/28 8:20,1.2,12,1.2,11,5,12
2018/12/28 8:21,1.4,13,1.4,11,6.7,12
2018/12/28 8:22,1.6,13,1.6,13,6,13
2018/12/28 8:23,1.9,13,1.9,13,5.1,14
2018/12/28 8:24,2,13,2,13,3.6,16
2018/12/28 8:25,2,13,2,13,3,12
2018/12/28 8:26,2.2,13,2.2,13,4.5,12
2018/12/28 8:27,2.3,13,2.3,13,3.3,16
2018/12/28 8:28,2.2,14,2.3,13,3.6,16
2018/12/28 8:29,2.3,14,2.3,13,3.9,14
2018/12/28 8:30,2.2,14,2.2,13,3.7,16
2018/12/28 8:31,2.1,14,2.2,13,4.2,11
2018/12/28 8:32,2.1,14,2.2,13,4.1,14
2018/12/28 8:33,2,14,2.1,13,3.9,14
2018/12/28 8:34,2,14,2,13,3.6,10
2018/12/28 8:35,2.1,14,2.1,13,6,13
2018/12/28 8:36,2.1,14,2.1,13,3.7,15
2018/12/28 8:37,2.2,14,2.2,14,4.7,13
2018/12/28 8:38,2.4,13,2.4,13,6.8,13
2018/12/28 8:39,2.5,13,2.5,13,7.6,12
2018/12/28 8:40,2.5,13,2.5,13,4.3,16
2018/12/28 8:41,2.6,14,2.6,13,5,16
2018/12/28 8:42,2.7,14,2.7,14,4.2,12
2018/12/28 8:43,2.5,14,2.7,14,3.3,12
2018/12/28 8:44,2.6,14,2.6,14,3.5,14
2018/12/28 8:45,2.4,14,2.5,14,3.5,2
2018/12/28 8:46,2.4,14,2.4,14,3.1,12
2018/12/28 8:47,2.3,14,2.4,14,2.2,14
2018/12/28 8:48,2.1,13,2.3,14,3.3,10
2018/12/28 8:49,1.9,14,2.1,14,2.6,13
2018/12/28 8:50,1.8,13,1.9,14,1.8,16
2018/12/28 8:51,1.5,13,1.8,14,2.5,12
2018/12/28 8:52,1.4,13,1.5,14,3.2,4
2018/12/28 8:53,1.4,14,1.5,14,2.4,4
2018/12/28 8:54,1.4,14,1.4,14,1.9,16
2018/12/28 8:55,1.4,14,1.4,14,3.6,10
2018/12/28 8:56,1.5,14,1.5,14,3.6,11
2018/12/28 8:57,1.4,13,1.4,14,2.7,7
2018/12/28 8:58,1.5,14,1.5,13,6.5,10
2018/12/28 8:59,1.8,13,1.8,14,6.7,11
2018/12/28 9:00,2.1,12,2.1,12,5,9
2018/12/28 9:01,2.1,11,2.1,12,3.8,9
2018/12/28 9:02,2.2,11,2.2,11,4.2,9
2018/12/28 9:03,2.2,11,2.2,11,2.6,14
2018/12/28 9:04,2.2,11,2.2,11,2.1,14
2018/12/28 9:05,2.2,11,2.3,11,4.4,10
2018/12/28 9:06,2.3,11,2.3,11,5.5,9
2018/12/28 9:07,2.5,11,2.5,11,6.7,9
2018/12/28 9:08,2.6,10,2.6,10,8.7,10
2018/12/28 9:09,2.6,10,2.6,10,7.4,11
2018/12/28 9:10,2.5,10,2.6,10,4.8,10
2018/12/28 9:11,2.7,10,2.7,10,6.3,8
2018/12/28 9:12,2.9,10,2.9,10,8.6,10
2018/12/28 9:13,3,10,3,10,5.7,9
2018/12/28 9:14,3.2,10,3.2,10,5.2,11
2018/12/28 9:15,3.3,10,3.3,10,5,11
2018/12/28 9:16,3.3,10,3.3,10,5.8,10
2018/12/28 9:17,3.4,10,3.4,10,8.5,10
2018/12/28 9:18,3.4,10,3.6,10,8.2,9
2018/12/28 9:19,3.2,10,3.4,10,4.9,9
2018/12/28 9:20,3.4,10,3.4,10,6.5,9
2018/12/28 9:21,3.5,10,3.5,10,8.1,10
2018/12/28 9:22,3.6,10,3.6,10,8.7,11
2018/12/28 9:23,3.6,10,3.6,10,5.6,10
2018/12/28 9:24,3.5,10,3.6,10,3.7,10
2018/12/28 9:25,3.4,10,3.5,10,3.6,13
2018/12/28 9:26,3.4,10,3.4,10,6.7,8
2018/12/28 9:27,3.1,10,3.4,10,5.7,10
2018/12/28 9:28,3,10,3.1,10,7.8,11
2018/12/28 9:29,3.3,10,3.3,10,8.7,10
2018/12/28 9:30,3.5,10,3.5,10,6.4,11
2018/12/28 9:31,3.2,11,3.4,10,6.4,10
2018/12/28 9:32,3.2,10,3.3,10,6.8,9
2018/12/28 9:33,3.1,10,3.2,10,3.8,9
2018/12/28 9:34,3.1,10,3.1,10,4.2,9
2018/12/28 9:35,3.3,10,3.3,10,5.8,12
2018/12/28 9:36,3.3,10,3.4,10,6.3,11
2018/12/28 9:37,3.3,10,3.3,10,6.5,9
2018/12/28 9:38,3.6,10,3.6,10,9,12
2018/12/28 9:39,3.5,10,3.6,10,9.2,10
2018/12/28 9:40,3.5,10,3.5,10,9.3,10
2018/12/28 9:41,3.6,11,3.7,11,6.7,10
2018/12/28 9:42,3.6,11,3.6,11,7.8,10
2018/12/28 9:43,3.7,11,3.7,11,5.2,10
2018/12/28 9:44,3.7,11,3.8,11,5.2,11
2018/12/28 9:45,3.9,11,3.9,11,8.9,10
2018/12/28 9:46,4,11,4,11,7.5,12
2018/12/28 9:47,4.2,11,4.2,11,7.1,12
2018/12/28 9:48,4,11,4.2,11,7.9,10
2018/12/28 9:49,4.1,11,4.1,11,9.4,10
2018/12/28 9:50,4,11,4.1,11,8.4,11
2018/12/28 9:51,4.3,11,4.3,11,10.2,11
2018/12/28 9:52,4.4,11,4.5,11,9.4,13
2018/12/28 9:53,4.3,11,4.4,11,3.7,13
2018/12/28 9:54,4.4,11,4.4,11,6.9,10
2018/12/28 9:55,4.2,11,4.4,11,6.1,9
2018/12/28 9:56,3.9,11,4.2,11,3.7,13
2018/12/28 9:57,3.9,11,3.9,11,10.7,9
2018/12/28 9:58,3.9,11,3.9,11,8.3,11
2018/12/28 9:59,3.7,11,3.9,11,8.2,11
2018/12/28 10:00,3.5,11,3.7,11,5.1,9
2018/12/28 10:01,3.4,11,3.5,11,9.5,12
2018/12/28 10:02,3.4,11,3.4,11,7.4,12
2018/12/28 10:03,3.6,11,3.6,11,7.9,12
2018/12/28 10:04,3.5,11,3.6,11,6.4,10
2018/12/28 10:05,3.5,11,3.5,11,9.4,10
2018/12/28 10:06,3.8,11,3.8,11,9.4,10
2018/12/28 10:07,3.9,11,3.9,11,7.2,10
2018/12/28 10:08,3.7,11,3.9,11,5.5,9
2018/12/28 10:09,3.8,11,3.8,11,6.3,8
2018/12/28 10:10,3.8,11,3.8,11,5,10
2018/12/28 10:11,3.4,11,3.8,11,3.5,9
2018/12/28 10:12,3.2,11,3.4,11,3.2,14
2018/12/28 10:13,3,11,3.2,11,4.5,9
2018/12/28 10:14,2.9,11,3,11,4.3,11
2018/12/28 10:15,2.8,11,2.9,11,3.8,11
2018/12/28 10:16,2.5,11,2.8,11,2.5,9
2018/12/28 10:17,2.1,11,2.4,11,3.7,8
2018/12/28 10:18,2,11,2.1,11,4.1,10
2018/12/28 10:19,1.8,11,2,11,3.6,9
2018/12/28 10:20,1.9,11,1.9,11,8.3,10
2018/12/28 10:21,2.2,11,2.2,11,7.2,11
2018/12/28 10:22,2.2,11,2.2,11,4.9,15
2018/12/28 10:23,2.3,11,2.3,11,5.6,12
2018/12/28 10:24,2.3,11,2.3,11,6.1,12
2018/12/28 10:25,2.4,11,2.4,11,7.2,11
2018/12/28 10:26,2.5,11,2.5,11,3.3,11
2018/12/28 10:27,2.9,11,2.9,11,11.1,11
2018/12/28 10:28,3.2,12,3.2,12,8.5,13
2018/12/28 10:29,3.3,12,3.3,12,5.2,11
2018/12/28 10:30,3.2,12,3.4,12,4.7,9
2018/12/28 10:31,3.1,12,3.3,12,5.5,11
2018/12/28 10:32,3.1,12,3.1,12,2.2,14
2018/12/28 10:33,2.9,11,3.1,12,4.3,10
2018/12/28 10:34,3,11,3.1,12,4.4,12
2018/12/28 10:35,2.9,12,3,12,4.2,11
2018/12/28 10:36,2.9,12,2.9,12,3.3,11
2018/12/28 10:37,2.6,11,3,12,3.6,10
2018/12/28 10:38,2.5,11,2.6,12,6.7,10
2018/12/28 10:39,2.7,11,2.7,12,9,9
2018/12/28 10:40,2.7,11,2.7,12,5.5,10
2018/12/28 10:41,2.7,11,2.7,12,6.1,10
2018/12/28 10:42,3,11,3,12,7.4,9
2018/12/28 10:43,3.1,11,3.1,11,6.3,10
2018/12/28 10:44,3.3,10,3.3,10,10,9